Location: Balagbag Mahabang Kahoy
(14.1562°N, 120.9200°E)
Time: 05:08:20
(UTC+00:00)

Cosmos 1140 Rocket - Pass Details

Date: 16 January 2026
Orbit: 739 x 763 km, 74.1° (Epoch: 15 February)

Event Time Altitude Azimuth Distance (km) Brightness Sun altitude
Rises 20:40:56 0° 189° (S) 3,161 6.8 -24.6°
Reaches altitude 10° 20:43:17 10° 187° (S) 2,238 6.0 -24.1°
Maximum altitude 20:48:20 75° 103° (ESE) 765 3.5 -22.9°
Drops below altitude 10° 20:53:24 10° 18° (NNE) 2,241 5.9 -21.7°
Sets 20:55:45 0° 16° (NNE) 3,166 6.7 -21.2°
